Weather History for Nashville, TN

Change the Weather History Date:

Tuesday, November 20, 2012

  Actual Average Record
Temperature  
Mean Temperature 58 °F 48 °F  
Max Temperature 68 °F 58 °F 78 °F (1942)
Min Temperature 48 °F 38 °F 10 °F (1914)
Degree Days  
Heating Degree Days 7    
Month to date heating degree days 317  
Since 1 July heating degree days 557  
Cooling Degree Days 0    
Month to date cooling degree days 0  
Year to date cooling degree days 1975  
Growing Degree Days 8 (Base 50)    
Moisture  
Dew Point 44 °F    
Average Humidity 63    
Maximum Humidity 86    
Minimum Humidity 39    
Precipitation  
Precipitation T in 0.16 in 2.63 in (1900)
Month to date precipitation 0.98 2.68  
Year to date precipitation 40.71 41.38  
Snow  
Snow 0.00 in 0.00 in 0.10 in (1937)
Month to date snowfall 0.0 0.0  
Since 1 July snowfall 0.0 T  
Since 1 September snowfall 0.0 T  
Snow Depth 0.00 in    
Sea Level Pressure  
Sea Level Pressure 30.13 in    
Wind  
Wind Speed 3 mph (SSW)    
Max Wind Speed 10 mph    
Max Gust Speed 17 mph    
Visibility 10 miles    
Events      
T = Trace of Precipitation, MM = Missing Value Source: NWS Daily Summary

Daily Weather History Graph

Daily Weather History Graph

Search for Another Location

Airport:

Trip Planner

Search our weather history database for the weather conditions in past years. The results will help you decide how hot, cold, wet, or windy it might be!

Date:

Astronomy

Nov. 20, 2012 Rise Set
Actual Time 6:29 AM CST 4:35 PM CST
Civil Twilight 6:01 AM CST 5:03 PM CST
Nautical Twilight 5:30 AM CST 5:34 PM CST
Astronomical Twilight 4:59 AM CST 6:05 PM CST
Moon 12:09 PM CST (11/20) 11:59 PM CST (11/20)
Length of Visible Light 11h 02m
Length of Day
10h 06m
First Quarter, 51% of the Moon is Illuminated
Nov 20
First Quarter
Nov 28
Full
Dec 6
Last Quarter
Dec 13
New
Dec 19
First Quarter

Hourly Weather History & Observations

Time (CST) Temp. Dew Point Humidity Pressure Visibility Wind Dir Wind Speed Gust Speed Precip Events Conditions
12:53 AM 51.1 °F 43.0 °F 74% 30.17 in 10.0 mi South 3.5 mph - 0.00 in   Overcast
1:53 AM 51.8 °F 46.4 °F 82% 30.18 in 10.0 mi Calm Calm - N/A   Overcast
2:53 AM 51.1 °F 45.0 °F 80% 30.17 in 10.0 mi Calm Calm - N/A   Mostly Cloudy
3:53 AM 48.9 °F 45.0 °F 86% 30.16 in 10.0 mi South 3.5 mph - N/A   Mostly Cloudy
4:53 AM 50.0 °F 45.0 °F 83% 30.17 in 10.0 mi Calm Calm - N/A   Overcast
5:53 AM 50.0 °F 46.0 °F 86% 30.17 in 10.0 mi South 3.5 mph - N/A   Mostly Cloudy
6:53 AM 48.9 °F 44.1 °F 83% 30.17 in 10.0 mi South 4.6 mph - N/A   Scattered Clouds
7:53 AM 53.1 °F 46.0 °F 77% 30.19 in 10.0 mi South 3.5 mph - N/A   Mostly Cloudy
8:53 AM 57.0 °F 45.0 °F 64% 30.17 in 10.0 mi Calm Calm - N/A   Mostly Cloudy
9:53 AM 62.1 °F 43.0 °F 50% 30.17 in 10.0 mi WSW 3.5 mph - N/A   Mostly Cloudy
10:53 AM 64.0 °F 39.9 °F 41% 30.15 in 10.0 mi Variable 5.8 mph - N/A   Mostly Cloudy
11:53 AM 64.0 °F 41.0 °F 43% 30.12 in 10.0 mi SW 3.5 mph - N/A   Mostly Cloudy
12:53 PM 66.9 °F 41.0 °F 39% 30.10 in 10.0 mi West 3.5 mph - N/A   Mostly Cloudy
1:53 PM 68.0 °F 42.1 °F 39% 30.08 in 10.0 mi SW 5.8 mph - N/A   Scattered Clouds
2:53 PM 66.9 °F 42.1 °F 40% 30.07 in 10.0 mi SW 3.5 mph - N/A   Mostly Cloudy
3:53 PM 66.0 °F 42.1 °F 42% 30.06 in 10.0 mi SW 3.5 mph - N/A   Scattered Clouds
4:53 PM 63.0 °F 43.0 °F 48% 30.07 in 10.0 mi SSW 3.5 mph - N/A   Mostly Cloudy
5:53 PM 60.1 °F 43.0 °F 53% 30.09 in 10.0 mi South 3.5 mph - N/A   Mostly Cloudy
6:53 PM 57.9 °F 44.1 °F 60% 30.10 in 10.0 mi South 3.5 mph - N/A   Overcast
7:53 PM 55.0 °F 44.1 °F 67% 30.11 in 10.0 mi Calm Calm - N/A   Mostly Cloudy
8:53 PM 54.0 °F 45.0 °F 72% 30.11 in 10.0 mi Variable 3.5 mph - N/A   Overcast
9:53 PM 53.1 °F 45.0 °F 74% 30.11 in 10.0 mi South 3.5 mph - N/A   Overcast
10:53 PM 55.0 °F 44.1 °F 67% 30.11 in 10.0 mi Calm Calm - N/A   Mostly Cloudy
11:53 PM 54.0 °F 45.0 °F 72% 30.12 in 10.0 mi Calm Calm - N/A   Mostly Cloudy